Погода в Архызе

Россия / Карачаево-Черкесская Республика     43°33′50″N   41°16′49″E
темп.,
°C
ветер,
м/с
пор.,
м/с
влажн.,
%
обл.,
%
осадки,
мм/ч
давл.,
гПа
погр.,
м
10 августа, ср
ср1000:00+8ююв22880 0.0 101411
03:00+8ю22880 0.0 101313
06:00+10юв11760 0.0 101310
09:00+18ссв21480 0.0 1010670
12:00+20с34437 0.0 10091955
15:00+19св215123 1.6 10091241
18:00+16ссв237524 3.3 1011129
21:00+10юв228621 3.9 101310
11 августа, чт
чт1100:00+10ююз22845 0.3 101216
03:00+9ю22876 1.0 101214
06:00+10юз118783 0.6 101311
09:00+15вюв117040 0.8 1011372
12:00+18св02657 3.5 10111095
15:00+17всв127311 8.1 1012591
18:00+15всв12783 6.3 1013101
21:00+10юв118524 8.6 101510
12 августа, пт
пт1200:00+10ю22830 0.0 101511
03:00+9ююз229037 0.6 101616
06:00+10ю118691 0.3 101611
09:00+14св118345 2.0 1015156
12:00+18ссв22653 2.2 1014846
15:00+17св337828 5.5 1015773
18:00+15св33828 5.6 1016127
21:00+10всв11891 9.4 101810
13 августа, сб
сб1300:00+9ююв11850 0.1 101710
03:00+9ююв11810 0.1 101610
06:00+11вюв11790 0.0 101610
09:00+17св11600 0.0 1014582
12:00+20ссв325316 0.2 10121477
15:00+18св32678 2.5 1013768
18:00+17ссв33761 1.6 1014340
21:00+11юв11900 1.9 101511
14 августа, вс
вс1400:00+11ю22840 0.0 101411
03:00+11ю22840 0.0 101310
06:00+11юв11790 0.0 101310
09:00+20св11520 0.0 1011657
12:00+23сз14420 0.0 10101858
15:00+22зсз02513 0.9 10111292
18:00+18с12730 1.2 1012111
21:00+12ю11860 1.5 101511